Location: Ch�risy
(50.2331°N, 2.9131°E)
Time: 01:55:48
(UTC+00:00)

CZ-4 R/B - Pass Details

Date: 17 January 2021
Orbit: 580 x 589 km, 97.7° (Epoch: 28 February)

Event Time Altitude Azimuth Distance (km) Brightness Sun altitude
Rises 17:46:36 0° 158° (SSE) 2,796 7.9 -13.8°
Reaches altitude 10° 17:48:44 10° 156° (SSE) 1,902 7.0 -14.2°
Maximum altitude 17:52:50 69° 73° (ENE) 631 4.3 -14.8°
Drops below altitude 10° 17:56:59 10° 351° (N) 1,923 7.0 -15.4°
Sets 17:59:10 0° 349° (N) 2,830 7.9 -15.8°
